Вернуться в каталог

NOAA 16 DEB

АктивенSSO
NORAD 41045·DEBRIS·🇺🇸 United States

Запущен Sep 21, 2000 с Vandenberg Space Force Base

Loading…

Ближайшие Пролёты (ближайшие 24 часа)

TLE

СвежийSource: Space-Track

Эпоха: Sep 14, 2026, 10:27 UTC

1 41045U 00055C   26257.43609828  .00000041  00000-0  42428-4 0  9995
2 41045  98.4554 259.0478 0013956  28.3899 331.8033 14.14835543557779

Отслеживайте NOAA 16 DEB в реальном времени с AllMySat

Download on the App Store